Regional Weather Roundup
Issued by NWS

Home | Current Version | Previous Version | Graphics & Text | Print | Product List | Glossary Off
Versions: 1 2 3 4 5 6 7 8 9 10 11 12 13 14 15 16 17 18 19 20 21 22 23 24 25 26 27 28 29 30 31 32 33 34 35 36 37 38 39 40 41 42 43 44 45 46 47 48 49 50

000
ASUS44 KMEG 221110
RWRTN
TENNESSEE HOURLY STATE WEATHER ROUNDUP
NATIONAL WEATHER SERVICE MEMPHIS TN
600 AM CDT TUE AUG 22 2017

TNZ002-004-019-021-049-052-054-088>092-221200-
WEST TENNESSEE

CITY           SKY/WX    TMP DP  RH WIND       PRES   REMARKS
MEMPHIS INTL   PTCLDY    77  73  87 SW6       30.03R
NWS MEMPHIS      N/A     75 N/A N/A MISG        N/A
JACKSON        CLEAR     75  74  96 SW7       30.04R
DYERSBURG      CLEAR     76  73  91 CALM      30.03R
SOMERVILLE     CLEAR     75  73  94 CALM      30.03R
COVINGTON      PTCLDY    75  73  94 CALM      30.03R
UNION CITY     CLEAR     75  73  94 S3        30.01R
BOLIVAR        CLEAR     75  72  88 S5        30.04R
PARIS          CLEAR     75  73  94 SW6       30.02R
HUNTINGDON     PTCLDY    75  72  88 CALM      30.03R
LEXINGTON      CLEAR     73  72  94 CALM      30.04R FOG
SELMER         CLEAR     75  73  94 CALM      30.05R
SAVANNAH       PTCLDY    77  73  88 SW6       30.05R
$$

TNZ008-025-027-028-033-062-065-066-221200-
NORTH MIDDLE TENNESSEE

CITY           SKY/WX    TMP DP  RH WIND       PRES   REMARKS
NASHVILLE      PTCLDY    74  69  85 S6        30.06R
PORTLAND       CLEAR     73  70  88 S9        30.05R
CLARKSVILLE    CLEAR     75  71  87 SW3       30.03R
SMYRNA         CLEAR     72  69  90 SE7       30.07S
COOKEVILLE     FOG       66  66 100 CALM      30.09S VSB 1
GALLATIN       PTCLDY    70  68  94 CALM      30.08S
CROSSVILLE     CLEAR     66  65  96 CALM      30.16S
$$

TNZ061-075-076-078-094-096-097-221200-
SOUTH MIDDLE TENNESSEE

CITY           SKY/WX    TMP DP  RH WIND       PRES   REMARKS
FAYETTEVILLE   CLEAR     72  70  94 S5        30.10R
TULLAHOMA      CLEAR     68  66  94 CALM      30.11S
WINCHESTER     CLEAR     72  70  94 CALM      30.11S
MCMINNVILLE    MOCLDY    68  68 100 CALM      30.10F VSB 1
COLUMBIA       PTCLDY    73  73 100 CALM      30.05S
SHELBYVILLE    CLEAR     70  68  94 CALM      30.07F
$$

TNZ017-018-042-046-047-221200-
NORTHEAST TENNESSEE

CITY           SKY/WX    TMP DP  RH WIND       PRES   REMARKS
TRI CITIES     PTCLDY    67  66  97 CALM      30.16R
ELIZABETHTON   PTCLDY    68  66  94 CALM      30.17R
$$

TNZ012-013-036-069-073-074-221200-
CENTRAL EAST TENNESSEE

CITY           SKY/WX    TMP DP  RH WIND       PRES   REMARKS
KNOXVILLE      MOCLDY    71  69  93 CALM      30.11R
OAK RIDGE      MOCLDY    71  69  93 CALM      30.13R
DOWNTOWN KNOXV PTCLDY    70  70 100 CALM      30.11S FOG
GATLINBURG     CLEAR     66  64  94 CALM      30.12S
MORRISTOWN     PTCLDY    70  68  94 CALM      30.13R
JACKSBORO        N/A     66  66 100 CALM      30.16S FOG
$$

TNZ083-085-099-221200-
SOUTHEAST TENNESSEE

CITY           SKY/WX    TMP DP  RH WIND       PRES   REMARKS
CHATTANOOGA    PTCLDY    71  69  93 CALM      30.11R
DAYTON         PTSUNNY   68  68 100 CALM      30.10S FOG
$$

SKY/WX REPORTED AS FAIR MEANS FEW OR NO CLOUDS BELOW
12 THOUSAND FEET.





USA.gov is the U.S. government's official web portal to all federal, state and local government web resources and services.